Regional Weather Roundup
Issued by NWS

Home | Current Version | Previous Version | Text Only | Print | Product List | Glossary Off
Versions: 1 2 3 4 5 6 7 8 9 10 11 12 13 14 15 16 17 18 19 20 21 22 23 24 25 26 27 28 29 30 31 32 33 34 35 36 37 38 39 40 41 42 43 44 45 46 47 48 49 50

000
ASUS43 KFSD 190902
RWRSD

WEATHER ROUNDUP FOR SOUTH DAKOTA
NATIONAL WEATHER SERVICE SIOUX FALLS SD
400 AM CDT THU APR 19 2018

NOTE: "FAIR" INDICATES FEW OR NO CLOUDS BELOW 12,000 FEET WITH NO
SIGNIFICANT WEATHER AND/OR OBSTRUCTIONS TO VISIBILITY.


SDZ001>005-009-010-012>017-191000-
NORTHWEST AND NORTH CENTRAL SOUTH DAKOTA

CITY           SKY/WX    TMP DP  RH WIND       PRES   REMARKS
BUFFALO          N/A     35  29  78 E6        30.23S
FAITH            N/A     32  31  96 S9        30.31S WCI  24
MOBRIDGE       CLEAR     26  22  84 CALM      30.32R
$$

SDZ012>016-024>037-041>051-057-063-072>074-191000-
SOUTHWEST AND SOUTH CENTRAL SOUTH DAKOTA

CITY           SKY/WX    TMP DP  RH WIND       PRES   REMARKS
RAPID CTY ARPT PTCLDY    32  30  92 CALM      30.29S
PIERRE         CLEAR     32  28  85 W3        30.35R
CUSTER         MOCLDY    25  19  78 N3        30.27R
ELLSWORTH AFB  PTCLDY    31  29  93 W6        30.28S WCI  25
PHILIP         CLEAR     25  24  96 E5        30.34R WCI  19
PINE RIDGE     PTCLDY    30  29  96 N3        30.31R
SPEARFISH      FAIR      34  25  69 CALM      30.27S
WINNER         FAIR      32  26  78 SW6       30.36R WCI  26
$$

SDZ004>011-016>023-039-040-191000-
NORTHEAST SOUTH DAKOTA

CITY           SKY/WX    TMP DP  RH WIND       PRES   REMARKS
ABERDEEN       CLEAR     28  25  88 CALM      30.35S
WATERTOWN      CLOUDY    31  28  89 CALM      30.33R
BROOKINGS      CLOUDY    28  26  92 W5        30.34R WCI  23
SISSETON         N/A     32  29  88 SW3       30.33R
$$

SDZ017-020-022-023-036>040-048>070-191000-
SOUTHEAST SOUTH DAKOTA

CITY           SKY/WX    TMP DP  RH WIND       PRES   REMARKS
SIOUX FALLS    CLOUDY    29  24  82 CALM      30.33R
HURON          CLEAR     26  24  92 NW5       30.35R WCI  20
CHAMBERLAIN    CLEAR     30  30  99 W3        30.35R
MITCHELL       CLEAR     29  27  92 W3        30.36R
YANKTON        CLEAR     31  29  92 NW10      30.34R WCI  22
$$

ABBREVIATIONS USED IN REMARKS
   TC - TEMPERATURE IN CELSIUS
  WCI - WIND CHILL INDEX
   HX - HEAT INDEX
  VSB - VISIBILITY





USA.gov is the U.S. government's official web portal to all federal, state and local government web resources and services.